Home   Weather   Vila Nova de Gaia   Past weeks

Flag for Portugal Past Weather in Vila Nova de Gaia, Portugal — Yesterday and Last 2 Weeks

Now
55 °F

Passing clouds.


Feels Like: 52 °F
Forecast: 48 / 62 °F
Wind: 13 mph from Southeast

Location: Porto / Pedras Rubras

Current Time: Dec 11, 2016 at 2:31:12 am

Latest Report: Dec 11, 2016 at 1:30 am


Visibility: N/A

Pressure: 30.30 "Hg

Humidity: 77%

Dew Point: 48 °F

Location of Vila Nova de GaiaLocation

Past Weather in Vila Nova de Gaia — Graph

°F

Vila Nova de Gaia Temperature Yesterday

Maximum temperature yesterday: 66 °F (at 2:30 pm)
Minimum temperature yesterday: 52 °F (at 7:00 am)
Average temperature yesterday: 57 °F

High & Low Weather Summary for the Past Weeks

 TemperatureHumidityPressure
High70 °F (Dec 4, 2:30 pm)100% (Nov 27, 7:00 pm)30.39 "Hg (Nov 27, 7:00 pm)
Low41 °F (Nov 28, 7:30 am)52% (Dec 8, 2:30 pm)29.56 "Hg (Dec 3, 3:00 pm)
Average56 °F74%30.04 "Hg
* Reported Nov 26 1:00 am — Dec 11 1:00 am, Vila Nova de Gaia, Weather by CustomWeather, © 2016

Note: Actual official high and low records may vary slightly from our data, if they occured in-between our weather recording intervals... More about our weather records

Advertising

Vila Nova de Gaia Weather History for the Previous 24 Hours

Scroll right to see more
 ConditionsComfort  
Time TempWeatherWind HumidityBarometerVisibility
1:00 am
Sun, Dec 11
55 °FPassing clouds.13 mph77%30.30 "HgN/A
12:30 am55 °FPassing clouds.12 mph77%30.30 "HgN/A
12:00 am54 °FPassing clouds.12 mph82%30.30 "HgN/A
11:30 pm
Sat, Dec 10
54 °FPassing clouds.12 mph82%30.30 "HgN/A
11:00 pm54 °FPassing clouds.10 mph82%30.30 "HgN/A
10:30 pm55 °FPassing clouds.12 mph77%30.30 "HgN/A
10:00 pm55 °FClear.10 mph77%30.30 "Hg10 mi
9:30 pm55 °FPassing clouds.12 mph77%30.30 "HgN/A
9:00 pm55 °FPassing clouds.9 mph77%30.30 "HgN/A
8:30 pm55 °FPassing clouds.10 mph77%30.30 "HgN/A
8:00 pm57 °FPassing clouds.9 mph72%30.30 "HgN/A
7:30 pm57 °FPassing clouds.9 mph77%30.30 "HgN/A
7:00 pm59 °FPassing clouds.9 mph72%30.30 "HgN/A
6:30 pm59 °FPassing clouds.8 mph72%30.30 "HgN/A
6:00 pm59 °FPassing clouds.8 mph72%30.27 "HgN/A
5:30 pm57 °FPassing clouds.6 mph77%30.27 "HgN/A
5:00 pm61 °FPassing clouds.6 mph68%30.27 "HgN/A
4:30 pm63 °FScattered clouds.6 mph68%30.27 "HgN/A
4:00 pm63 °FScattered clouds.6 mph73%30.27 "HgN/A
3:30 pm64 °FPartly sunny.7 mph68%30.27 "HgN/A
3:00 pm64 °FPartly sunny.8 mph68%30.27 "HgN/A
2:30 pm66 °FPartly sunny.7 mph64%30.27 "HgN/A
2:00 pm64 °FPassing clouds.9 mph64%30.27 "HgN/A
1:30 pm64 °FScattered clouds.9 mph64%30.27 "HgN/A
1:00 pm64 °FPassing clouds.10 mph64%30.27 "HgN/A
12:30 pm63 °FPassing clouds.10 mph64%30.30 "HgN/A
12:00 pm61 °FScattered clouds.9 mph68%30.30 "HgN/A
11:30 am59 °FOvercast.9 mph68%30.30 "HgN/A
11:00 am59 °FOvercast.10 mph68%30.33 "HgN/A
10:30 am57 °FPartly sunny.12 mph72%30.33 "HgN/A
10:00 am57 °FBroken clouds.14 mph67%30.30 "HgN/A
9:30 am54 °FScattered clouds.12 mph77%30.30 "HgN/A
9:00 am54 °FPassing clouds.12 mph72%30.30 "HgN/A
8:30 am52 °FSunny.12 mph77%30.30 "Hg10 mi
8:00 am52 °FPassing clouds.8 mph77%30.30 "HgN/A
7:30 am52 °FPassing clouds.9 mph77%30.27 "HgN/A
7:00 am52 °FPassing clouds.10 mph77%30.27 "HgN/A
6:30 am54 °FClear.10 mph72%30.27 "Hg10 mi
6:00 am54 °FClear.10 mph72%30.27 "Hg10 mi
5:30 am54 °FClear.12 mph72%30.24 "Hg10 mi
5:00 am54 °FClear.10 mph72%30.27 "Hg10 mi
4:30 am54 °FClear.12 mph72%30.27 "Hg10 mi
4:00 am54 °FClear.13 mph72%30.27 "Hg10 mi
3:30 am54 °FPassing clouds.13 mph72%30.27 "HgN/A
3:00 am54 °FPassing clouds.10 mph72%30.27 "HgN/A
2:30 am54 °FPassing clouds.12 mph72%30.27 "HgN/A
2:00 am55 °FPassing clouds.12 mph67%30.27 "HgN/A
Weather by CustomWeather, © 2016

See weather overviewHow to use our weather pages